Time,TemperatureF,DewpointF,PressureIn,WindDirection,WindDirectionDegrees,WindSpeedMPH,WindSpeedGustMPH,Humidity,HourlyPrecipIn,Conditions,Clouds,dailyrainin,SoftwareType,DateUTC
2013-06-01 00:01:00,62.3,59.9,29.70,WSW,245,0.0,0.0,92,0.00,,,0.00,Wunderground v.1.15,2013-06-01 04:01:00,
2013-06-01 00:02:00,62.3,59.9,29.70,WSW,245,0.0,0.0,92,0.00,,,0.00,Wunderground v.1.15,2013-06-01 04:02:00,
2013-06-01 00:03:00,62.3,59.9,29.70,WSW,245,0.0,0.0,92,0.00,,,0.00,Wunderground v.1.15,2013-06-01 04:03:00,
2013-06-01 00:06:00,62.3,59.9,29.70,WSW,245,0.0,0.0,92,0.00,,,0.00,Wunderground v.1.15,2013-06-01 04:06:00,
2013-06-01 00:11:00,62.3,59.9,29.70,WSW,245,0.0,0.0,92,0.00,,,0.00,Wunderground v.1.15,2013-06-01 04:11:00,
2013-06-01 00:13:00,62.2,59.8,29.70,WSW,245,0.0,0.0,92,0.00,,,0.00,Wunderground v.1.15,2013-06-01 04:13:00,
2013-06-01 00:19:00,62.0,59.6,29.70,WSW,245,0.0,0.0,92,0.00,,,0.00,Wunderground v.1.15,2013-06-01 04:19:00,
2013-06-01 00:24:00,62.0,59.6,29.70,WSW,245,0.0,0.0,92,0.00,,,0.00,Wunderground v.1.15,2013-06-01 04:24:00,
2013-06-01 00:30:00,62.0,60.0,29.70,WSW,245,0.0,0.0,93,0.00,,,0.00,Wunderground v.1.15,2013-06-01 04:30:00,
2013-06-01 00:36:00,62.0,60.0,29.70,WSW,245,0.0,0.0,93,0.00,,,0.00,Wunderground v.1.15,2013-06-01 04:36:00,
2013-06-01 00:41:00,62.0,60.0,29.70,WSW,245,0.0,0.0,93,0.00,,,0.00,Wunderground v.1.15,2013-06-01 04:41:00,
2013-06-01 00:47:00,62.0,60.0,29.70,WSW,245,0.0,0.0,93,0.00,,,0.00,Wunderground v.1.15,2013-06-01 04:47:00,
2013-06-01 00:52:00,61.8,59.8,29.70,WSW,245,0.0,0.0,93,0.00,,,0.00,Wunderground v.1.15,2013-06-01 04:52:00,
2013-06-01 00:57:00,61.6,59.6,29.69,WSW,245,0.0,0.0,93,0.00,,,0.00,Wunderground v.1.15,2013-06-01 04:57:00,
2013-06-01 01:02:00,61.7,59.7,29.69,WSW,245,0.0,0.0,93,0.00,,,0.00,Wunderground v.1.15,2013-06-01 05:02:00,
2013-06-01 01:08:00,61.7,59.7,29.69,WSW,245,0.0,0.0,93,0.00,,,0.00,Wunderground v.1.15,2013-06-01 05:08:00,
2013-06-01 01:13:00,61.7,59.7,29.69,WSW,245,0.0,0.0,93,0.00,,,0.00,Wunderground v.1.15,2013-06-01 05:13:00,
2013-06-01 01:19:00,61.6,59.6,29.69,WSW,245,0.0,0.0,93,0.00,,,0.00,Wunderground v.1.15,2013-06-01 05:19:00,
2013-06-01 01:24:00,61.6,59.6,29.69,WSW,245,0.0,0.0,93,0.00,,,0.00,Wunderground v.1.15,2013-06-01 05:24:00,
2013-06-01 01:30:00,61.4,59.4,29.69,WSW,245,0.0,0.0,93,0.00,,,0.00,Wunderground v.1.15,2013-06-01 05:30:00,
2013-06-01 01:36:00,61.4,59.4,29.69,WSW,245,0.0,0.0,93,0.00,,,0.00,Wunderground v.1.15,2013-06-01 05:36:00,
2013-06-01 01:41:00,61.2,59.2,29.69,WSW,245,0.0,0.0,93,0.00,,,0.00,Wunderground v.1.15,2013-06-01 05:41:00,
2013-06-01 01:47:00,61.3,59.3,29.69,WSW,245,0.0,0.0,93,0.00,,,0.00,Wunderground v.1.15,2013-06-01 05:47:00,
2013-06-01 01:53:00,61.1,59.1,29.69,WSW,245,0.0,0.0,93,0.00,,,0.00,Wunderground v.1.15,2013-06-01 05:53:00,
2013-06-01 01:59:00,61.1,59.1,29.69,WSW,245,0.0,0.0,93,0.00,,,0.00,Wunderground v.1.15,2013-06-01 05:59:00,
2013-06-01 02:04:00,60.9,58.9,29.69,WSW,245,0.0,0.0,93,0.00,,,0.00,Wunderground v.1.15,2013-06-01 06:04:00,
2013-06-01 02:09:00,60.9,58.9,29.69,WSW,245,0.0,0.0,93,0.00,,,0.00,Wunderground v.1.15,2013-06-01 06:09:00,
2013-06-01 02:14:00,61.0,59.3,29.69,WSW,245,0.0,0.0,94,0.00,,,0.00,Wunderground v.1.15,2013-06-01 06:14:00,
2013-06-01 02:19:00,61.1,59.4,29.69,WSW,245,0.0,1.0,94,0.00,,,0.00,Wunderground v.1.15,2013-06-01 06:19:00,
2013-06-01 02:24:00,61.0,59.3,29.68,WSW,245,0.0,0.0,94,0.00,,,0.00,Wunderground v.1.15,2013-06-01 06:24:00,
2013-06-01 02:29:00,60.8,58.8,29.69,WSW,245,0.0,0.0,93,0.00,,,0.00,Wunderground v.1.15,2013-06-01 06:29:00,
2013-06-01 02:34:00,60.7,59.0,29.69,WSW,245,0.0,0.0,94,0.00,,,0.00,Wunderground v.1.15,2013-06-01 06:34:00,
2013-06-01 02:39:00,60.7,59.0,29.69,WSW,245,0.0,0.0,94,0.00,,,0.00,Wunderground v.1.15,2013-06-01 06:39:00,
2013-06-01 02:44:00,60.8,59.1,29.69,WSW,245,0.0,0.0,94,0.00,,,0.00,Wunderground v.1.15,2013-06-01 06:44:00,
2013-06-01 02:49:00,60.8,59.1,29.69,WSW,245,0.0,0.0,94,0.00,,,0.00,Wunderground v.1.15,2013-06-01 06:49:00,
2013-06-01 02:54:00,60.7,59.0,29.69,WSW,245,0.0,0.0,94,0.00,,,0.00,Wunderground v.1.15,2013-06-01 06:54:00,
2013-06-01 02:59:00,60.5,58.8,29.69,WSW,245,0.0,0.0,94,0.00,,,0.00,Wunderground v.1.15,2013-06-01 06:59:00,
2013-06-01 03:04:00,60.5,58.8,29.68,WSW,245,0.0,0.0,94,0.00,,,0.00,Wunderground v.1.15,2013-06-01 07:04:00,
2013-06-01 03:09:00,60.5,58.8,29.68,WSW,245,0.0,0.0,94,0.00,,,0.00,Wunderground v.1.15,2013-06-01 07:09:00,
2013-06-01 03:14:00,60.5,58.8,29.68,WSW,245,0.0,0.0,94,0.00,,,0.00,Wunderground v.1.15,2013-06-01 07:14:00,
2013-06-01 03:19:00,60.4,58.7,29.68,WSW,245,0.0,0.0,94,0.00,,,0.00,Wunderground v.1.15,2013-06-01 07:19:00,
2013-06-01 03:24:00,60.4,58.7,29.68,WSW,245,0.0,0.0,94,0.00,,,0.00,Wunderground v.1.15,2013-06-01 07:24:00,
2013-06-01 03:29:00,60.3,58.6,29.68,WSW,245,0.0,0.0,94,0.00,,,0.00,Wunderground v.1.15,2013-06-01 07:29:00,
2013-06-01 03:34:00,60.3,58.6,29.68,WSW,245,0.0,0.0,94,0.00,,,0.00,Wunderground v.1.15,2013-06-01 07:34:00,
2013-06-01 03:39:00,60.2,58.5,29.68,WSW,245,0.0,0.0,94,0.00,,,0.00,Wunderground v.1.15,2013-06-01 07:39:00,
2013-06-01 03:44:00,60.0,58.3,29.68,WSW,245,0.0,0.0,94,0.00,,,0.00,Wunderground v.1.15,2013-06-01 07:44:00,
2013-06-01 03:49:00,59.9,58.2,29.68,WSW,245,0.0,0.0,94,0.00,,,0.00,Wunderground v.1.15,2013-06-01 07:49:00,
2013-06-01 03:55:00,59.7,58.0,29.68,WSW,245,0.0,0.0,94,0.00,,,0.00,Wunderground v.1.15,2013-06-01 07:55:00,
2013-06-01 04:00:00,59.7,58.0,29.68,WSW,245,0.0,0.0,94,0.00,,,0.00,Wunderground v.1.15,2013-06-01 08:00:00,
2013-06-01 04:05:00,59.7,58.0,29.68,WSW,245,0.0,0.0,94,0.00,,,0.00,Wunderground v.1.15,2013-06-01 08:05:00,
2013-06-01 04:10:00,59.6,57.9,29.68,WSW,245,0.0,0.0,94,0.00,,,0.00,Wunderground v.1.15,2013-06-01 08:10:00,
2013-06-01 04:15:00,59.4,57.7,29.68,WSW,245,0.0,0.0,94,0.00,,,0.00,Wunderground v.1.15,2013-06-01 08:15:00,
2013-06-01 04:20:00,59.3,57.6,29.68,WSW,245,0.0,0.0,94,0.00,,,0.00,Wunderground v.1.15,2013-06-01 08:20:00,
2013-06-01 04:25:00,59.4,57.7,29.68,WSW,245,0.0,0.0,94,0.00,,,0.00,Wunderground v.1.15,2013-06-01 08:25:00,
2013-06-01 04:30:00,59.3,57.6,29.68,WSW,245,0.0,0.0,94,0.00,,,0.00,Wunderground v.1.15,2013-06-01 08:30:00,
2013-06-01 04:35:00,59.3,57.6,29.68,WSW,245,0.0,0.0,94,0.00,,,0.00,Wunderground v.1.15,2013-06-01 08:35:00,
2013-06-01 04:41:00,59.2,57.5,29.69,WSW,245,0.0,0.0,94,0.00,,,0.00,Wunderground v.1.15,2013-06-01 08:41:00,
2013-06-01 04:46:00,59.1,57.4,29.68,WSW,245,0.0,0.0,94,0.00,,,0.00,Wunderground v.1.15,2013-06-01 08:46:00,
2013-06-01 04:51:00,59.1,57.4,29.69,WSW,245,0.0,0.0,94,0.00,,,0.00,Wunderground v.1.15,2013-06-01 08:51:00,
2013-06-01 04:56:00,59.3,57.6,29.69,WSW,245,0.0,0.0,94,0.00,,,0.00,Wunderground v.1.15,2013-06-01 08:56:00,
2013-06-01 05:01:00,59.1,57.4,29.69,WSW,245,0.0,0.0,94,0.00,,,0.00,Wunderground v.1.15,2013-06-01 09:01:00,
2013-06-01 05:06:00,59.0,57.3,29.69,WSW,245,0.0,0.0,94,0.00,,,0.00,Wunderground v.1.15,2013-06-01 09:06:00,
2013-06-01 05:11:00,58.9,57.2,29.69,WSW,245,0.0,0.0,94,0.00,,,0.00,Wunderground v.1.15,2013-06-01 09:11:00,
2013-06-01 05:16:00,58.9,57.2,29.69,WSW,245,0.0,0.0,94,0.00,,,0.00,Wunderground v.1.15,2013-06-01 09:16:00,
2013-06-01 05:21:00,59.0,57.3,29.69,WSW,245,0.0,0.0,94,0.00,,,0.00,Wunderground v.1.15,2013-06-01 09:21:00,
2013-06-01 05:26:00,59.0,57.3,29.69,WSW,245,0.0,0.0,94,0.00,,,0.00,Wunderground v.1.15,2013-06-01 09:26:00,
2013-06-01 05:31:00,58.9,57.2,29.69,WSW,245,0.0,0.0,94,0.00,,,0.00,Wunderground v.1.15,2013-06-01 09:31:00,
2013-06-01 05:36:00,59.0,57.3,29.69,WSW,245,0.0,0.0,94,0.00,,,0.00,Wunderground v.1.15,2013-06-01 09:36:00,
2013-06-01 05:41:00,58.9,57.2,29.69,WSW,245,0.0,0.0,94,0.00,,,0.00,Wunderground v.1.15,2013-06-01 09:41:00,
2013-06-01 05:46:00,59.0,57.3,29.69,WSW,245,0.0,0.0,94,0.00,,,0.00,Wunderground v.1.15,2013-06-01 09:46:00,
2013-06-01 05:51:00,59.0,57.3,29.69,WSW,245,0.0,0.0,94,0.00,,,0.00,Wunderground v.1.15,2013-06-01 09:51:00,
2013-06-01 05:56:00,58.7,57.0,29.69,WSW,245,0.0,0.0,94,0.00,,,0.00,Wunderground v.1.15,2013-06-01 09:56:00,
2013-06-01 06:01:00,58.7,57.0,29.69,WSW,245,0.0,0.0,94,0.00,,,0.00,Wunderground v.1.15,2013-06-01 10:01:00,
2013-06-01 06:06:00,58.7,57.0,29.69,WSW,245,0.0,0.0,94,0.00,,,0.00,Wunderground v.1.15,2013-06-01 10:06:00,
2013-06-01 06:11:00,58.7,57.0,29.69,WSW,245,0.0,0.0,94,0.00,,,0.00,Wunderground v.1.15,2013-06-01 10:11:00,
2013-06-01 06:16:00,58.8,57.1,29.69,WSW,245,0.0,0.0,94,0.00,,,0.00,Wunderground v.1.15,2013-06-01 10:16:00,
2013-06-01 06:21:00,58.9,57.2,29.69,WSW,245,0.0,0.0,94,0.00,,,0.00,Wunderground v.1.15,2013-06-01 10:21:00,
2013-06-01 06:26:00,58.9,57.2,29.70,WSW,245,0.0,0.0,94,0.00,,,0.00,Wunderground v.1.15,2013-06-01 10:26:00,
2013-06-01 06:31:00,59.1,57.4,29.69,WSW,245,0.0,0.0,94,0.00,,,0.00,Wunderground v.1.15,2013-06-01 10:31:00,
2013-06-01 06:37:00,59.3,57.6,29.69,WSW,245,0.0,0.0,94,0.00,,,0.00,Wunderground v.1.15,2013-06-01 10:37:00,
2013-06-01 06:42:00,59.6,57.9,29.69,WSW,245,0.0,0.0,94,0.00,,,0.00,Wunderground v.1.15,2013-06-01 10:42:00,
2013-06-01 06:47:00,59.8,58.1,29.70,WSW,245,0.0,0.0,94,0.00,,,0.00,Wunderground v.1.15,2013-06-01 10:47:00,
2013-06-01 06:52:00,60.1,58.4,29.70,WSW,245,0.0,0.0,94,0.00,,,0.00,Wunderground v.1.15,2013-06-01 10:52:00,
2013-06-01 06:57:00,60.3,58.6,29.70,WSW,245,0.0,0.0,94,0.00,,,0.00,Wunderground v.1.15,2013-06-01 10:57:00,
2013-06-01 07:02:00,60.9,59.2,29.70,WSW,245,0.0,0.0,94,0.00,,,0.00,Wunderground v.1.15,2013-06-01 11:02:00,
2013-06-01 07:07:00,61.2,59.2,29.70,WSW,245,0.0,0.0,93,0.00,,,0.00,Wunderground v.1.15,2013-06-01 11:07:00,
2013-06-01 07:12:00,61.6,59.9,29.70,WSW,245,0.0,0.0,94,0.00,,,0.00,Wunderground v.1.15,2013-06-01 11:12:00,
2013-06-01 07:17:00,62.2,60.5,29.70,WSW,245,0.0,0.0,94,0.00,,,0.00,Wunderground v.1.15,2013-06-01 11:17:00,
2013-06-01 07:22:00,62.8,60.7,29.70,WSW,245,0.0,0.0,93,0.00,,,0.00,Wunderground v.1.15,2013-06-01 11:22:00,
2013-06-01 07:27:00,63.3,61.2,29.70,WSW,245,0.0,0.0,93,0.00,,,0.00,Wunderground v.1.15,2013-06-01 11:27:00,
2013-06-01 07:32:00,63.9,61.8,29.70,WSW,245,0.0,0.0,93,0.00,,,0.00,Wunderground v.1.15,2013-06-01 11:32:00,
2013-06-01 07:37:00,64.4,62.3,29.70,WSW,245,0.0,0.0,93,0.00,,,0.00,Wunderground v.1.15,2013-06-01 11:37:00,
2013-06-01 07:42:00,65.0,62.9,29.70,WSW,245,0.0,0.0,93,0.00,,,0.00,Wunderground v.1.15,2013-06-01 11:42:00,
2013-06-01 07:47:00,65.5,63.7,29.70,WSW,245,0.0,0.0,94,0.00,,,0.00,Wunderground v.1.15,2013-06-01 11:47:00,
2013-06-01 07:52:00,66.2,64.4,29.71,WSW,245,0.0,0.0,94,0.00,,,0.00,Wunderground v.1.15,2013-06-01 11:52:00,
2013-06-01 07:57:00,66.9,65.1,29.71,WSW,245,0.0,0.0,94,0.00,,,0.00,Wunderground v.1.15,2013-06-01 11:57:00,
2013-06-01 08:02:00,67.6,65.8,29.71,WSW,245,0.0,0.0,94,0.00,,,0.00,Wunderground v.1.15,2013-06-01 12:02:00,
2013-06-01 08:07:00,68.1,66.0,29.71,WSW,245,0.0,1.0,93,0.00,,,0.00,Wunderground v.1.15,2013-06-01 12:07:00,
2013-06-01 08:12:00,69.0,66.9,29.71,WSW,245,0.0,0.0,93,0.00,,,0.00,Wunderground v.1.15,2013-06-01 12:12:00,
2013-06-01 08:17:00,69.5,66.8,29.71,WSW,245,0.0,0.0,91,0.00,,,0.00,Wunderground v.1.15,2013-06-01 12:17:00,
2013-06-01 08:22:00,70.4,67.3,29.71,WSW,245,0.0,0.0,90,0.00,,,0.00,Wunderground v.1.15,2013-06-01 12:22:00,
2013-06-01 08:27:00,71.5,67.4,29.71,SW,233,1.0,1.0,87,0.00,,,0.00,Wunderground v.1.15,2013-06-01 12:27:00,
2013-06-01 08:32:00,72.4,65.9,29.71,WSW,242,0.0,2.0,80,0.00,,,0.00,Wunderground v.1.15,2013-06-01 12:32:00,
2013-06-01 08:37:00,73.3,67.5,29.71,NE,46,1.0,2.0,82,0.00,,,0.00,Wunderground v.1.15,2013-06-01 12:37:00,
2013-06-01 08:42:00,74.5,66.8,29.70,SE,136,0.0,1.0,77,0.00,,,0.00,Wunderground v.1.15,2013-06-01 12:42:00,
2013-06-01 08:47:00,75.3,66.4,29.70,SSE,160,1.0,2.0,74,0.00,,,0.00,Wunderground v.1.15,2013-06-01 12:47:00,
2013-06-01 08:52:00,75.9,67.8,29.70,SW,226,2.0,3.0,76,0.00,,,0.00,Wunderground v.1.15,2013-06-01 12:52:00,
2013-06-01 08:57:00,76.2,67.3,29.70,SE,146,1.0,3.0,74,0.00,,,0.00,Wunderground v.1.15,2013-06-01 12:57:00,
2013-06-01 09:02:00,76.5,66.4,29.70,SE,145,1.0,2.0,71,0.00,,,0.00,Wunderground v.1.15,2013-06-01 13:02:00,
2013-06-01 09:07:00,76.7,65.8,29.70,SSW,209,0.0,2.0,69,0.00,,,0.00,Wunderground v.1.15,2013-06-01 13:07:00,
2013-06-01 09:12:00,76.9,66.4,29.70,SW,222,0.0,1.0,70,0.00,,,0.00,Wunderground v.1.15,2013-06-01 13:12:00,
2013-06-01 09:17:00,77.3,67.6,29.70,SSW,198,1.0,1.0,72,0.00,,,0.00,Wunderground v.1.15,2013-06-01 13:17:00,
2013-06-01 09:22:00,77.4,67.3,29.70,East,93,1.0,2.0,71,0.00,,,0.00,Wunderground v.1.15,2013-06-01 13:22:00,
2013-06-01 09:27:00,77.5,66.9,29.70,East,99,0.0,2.0,70,0.00,,,0.00,Wunderground v.1.15,2013-06-01 13:27:00,
2013-06-01 09:32:00,77.7,67.1,29.70,East,87,1.0,1.0,70,0.00,,,0.00,Wunderground v.1.15,2013-06-01 13:32:00,
2013-06-01 09:37:00,77.7,67.1,29.69,SSW,195,3.0,3.0,70,0.00,,,0.00,Wunderground v.1.15,2013-06-01 13:37:00,
2013-06-01 09:42:00,77.6,67.0,29.69,ESE,103,0.0,2.0,70,0.00,,,0.00,Wunderground v.1.15,2013-06-01 13:42:00,
2013-06-01 09:47:00,77.8,66.8,29.69,East,98,1.0,3.0,69,0.00,,,0.00,Wunderground v.1.15,2013-06-01 13:47:00,
2013-06-01 09:52:00,78.1,67.9,29.69,WSW,239,1.0,1.0,71,0.00,,,0.00,Wunderground v.1.15,2013-06-01 13:52:00,
2013-06-01 09:58:00,78.4,68.2,29.69,WSW,245,1.0,2.0,71,0.00,,,0.00,Wunderground v.1.15,2013-06-01 13:58:00,
2013-06-01 10:03:00,78.5,66.6,29.69,SW,228,2.0,2.0,67,0.00,,,0.00,Wunderground v.1.15,2013-06-01 14:03:00,
2013-06-01 10:08:00,78.8,67.3,29.69,West,275,1.0,3.0,68,0.00,,,0.00,Wunderground v.1.15,2013-06-01 14:08:00,
2013-06-01 10:13:00,79.1,68.1,29.69,SW,214,0.0,2.0,69,0.00,,,0.00,Wunderground v.1.15,2013-06-01 14:13:00,
2013-06-01 10:18:00,79.7,68.2,29.69,East,93,2.0,2.0,68,0.00,,,0.00,Wunderground v.1.15,2013-06-01 14:18:00,
2013-06-01 10:23:00,80.0,67.6,29.69,NE,44,1.0,3.0,66,0.00,,,0.00,Wunderground v.1.15,2013-06-01 14:23:00,
2013-06-01 10:28:00,80.3,67.5,29.69,SE,138,1.0,3.0,65,0.00,,,0.00,Wunderground v.1.15,2013-06-01 14:28:00,
2013-06-01 10:33:00,80.6,67.7,29.69,SSW,209,2.0,4.0,65,0.00,,,0.00,Wunderground v.1.15,2013-06-01 14:33:00,
2013-06-01 10:38:00,80.9,66.7,29.69,SE,136,0.0,4.0,62,0.00,,,0.00,Wunderground v.1.15,2013-06-01 14:38:00,
2013-06-01 10:43:00,81.6,67.8,29.69,ESE,115,0.0,3.0,63,0.00,,,0.00,Wunderground v.1.15,2013-06-01 14:43:00,
2013-06-01 10:48:00,82.1,67.3,29.68,SSW,195,1.0,3.0,61,0.00,,,0.00,Wunderground v.1.15,2013-06-01 14:48:00,
2013-06-01 10:54:00,83.2,68.3,29.68,WSW,248,2.0,3.0,61,0.00,,,0.00,Wunderground v.1.15,2013-06-01 14:54:00,
2013-06-01 10:59:00,83.5,67.7,29.68,East,84,1.0,3.0,59,0.00,,,0.00,Wunderground v.1.15,2013-06-01 14:59:00,
2013-06-01 11:04:00,83.4,68.5,29.68,East,85,1.0,3.0,61,0.00,,,0.00,Wunderground v.1.15,2013-06-01 15:04:00,
2013-06-01 11:09:00,83.1,67.8,29.68,SE,125,0.0,6.0,60,0.00,,,0.00,Wunderground v.1.15,2013-06-01 15:09:00,
2013-06-01 11:14:00,83.3,66.5,29.68,SSW,199,3.0,5.0,57,0.00,,,0.00,Wunderground v.1.15,2013-06-01 15:14:00,
2013-06-01 11:19:00,83.7,67.4,29.67,South,191,2.0,5.0,58,0.00,,,0.00,Wunderground v.1.15,2013-06-01 15:19:00,
2013-06-01 11:24:00,84.2,67.8,29.67,SSE,153,6.0,7.0,58,0.00,,,0.00,Wunderground v.1.15,2013-06-01 15:24:00,
2013-06-01 11:29:00,84.0,68.6,29.68,ENE,74,1.0,7.0,60,0.00,,,0.00,Wunderground v.1.15,2013-06-01 15:29:00,
2013-06-01 11:34:00,84.5,67.1,29.67,SW,226,2.0,5.0,56,0.00,,,0.00,Wunderground v.1.15,2013-06-01 15:34:00,
2013-06-01 11:39:00,84.6,66.7,29.67,SE,143,1.0,6.0,55,0.00,,,0.00,Wunderground v.1.15,2013-06-01 15:39:00,
2013-06-01 11:44:00,84.6,66.7,29.67,South,174,1.0,8.0,55,0.00,,,0.00,Wunderground v.1.15,2013-06-01 15:44:00,
2013-06-01 11:49:00,84.6,67.7,29.67,SSE,153,0.0,8.0,57,0.00,,,0.00,Wunderground v.1.15,2013-06-01 15:49:00,
2013-06-01 11:54:00,85.1,66.6,29.67,SSE,152,1.0,6.0,54,0.00,,,0.00,Wunderground v.1.15,2013-06-01 15:54:00,
2013-06-01 11:59:00,85.1,66.6,29.67,ENE,71,2.0,6.0,54,0.00,,,0.00,Wunderground v.1.15,2013-06-01 15:59:00,
2013-06-01 12:04:00,85.4,66.9,29.67,ESE,110,1.0,4.0,54,0.00,,,0.00,Wunderground v.1.15,2013-06-01 16:04:00,
2013-06-01 12:09:00,85.8,67.2,29.67,East,79,2.0,2.0,54,0.00,,,0.00,Wunderground v.1.15,2013-06-01 16:09:00,
2013-06-01 12:14:00,85.9,67.9,29.67,SSW,200,4.0,6.0,55,0.00,,,0.00,Wunderground v.1.15,2013-06-01 16:14:00,
2013-06-01 12:19:00,86.2,68.7,29.66,SSW,211,2.0,3.0,56,0.00,,,0.00,Wunderground v.1.15,2013-06-01 16:19:00,
2013-06-01 12:24:00,86.3,68.8,29.66,ESE,120,2.0,8.0,56,0.00,,,0.00,Wunderground v.1.15,2013-06-01 16:24:00,
2013-06-01 12:29:00,86.8,68.2,29.66,ESE,113,3.0,3.0,54,0.00,,,0.00,Wunderground v.1.15,2013-06-01 16:29:00,
2013-06-01 12:34:00,86.6,67.4,29.66,SE,125,2.0,7.0,53,0.00,,,0.00,Wunderground v.1.15,2013-06-01 16:34:00,
2013-06-01 12:39:00,86.8,69.7,29.66,South,169,0.0,2.0,57,0.00,,,0.00,Wunderground v.1.15,2013-06-01 16:39:00,
2013-06-01 12:45:00,87.4,67.1,29.66,SE,134,2.0,5.0,51,0.00,,,0.00,Wunderground v.1.15,2013-06-01 16:45:00,
2013-06-01 12:50:00,87.1,66.8,29.66,SSE,167,3.0,3.0,51,0.00,,,0.00,Wunderground v.1.15,2013-06-01 16:50:00,
2013-06-01 12:55:00,87.1,68.4,29.65,SW,235,2.0,6.0,54,0.00,,,0.00,Wunderground v.1.15,2013-06-01 16:55:00,
2013-06-01 13:00:00,87.2,66.3,29.65,ENE,72,2.0,2.0,50,0.00,,,0.00,Wunderground v.1.15,2013-06-01 17:00:00,
2013-06-01 13:05:00,86.8,65.9,29.65,East,80,3.0,4.0,50,0.00,,,0.00,Wunderground v.1.15,2013-06-01 17:05:00,
2013-06-01 13:10:00,86.9,66.6,29.65,South,171,4.0,5.0,51,0.00,,,0.00,Wunderground v.1.15,2013-06-01 17:10:00,
2013-06-01 13:15:00,87.5,69.9,29.65,SSW,208,0.0,5.0,56,0.00,,,0.00,Wunderground v.1.15,2013-06-01 17:15:00,
2013-06-01 13:20:00,88.3,69.0,29.65,East,88,2.0,5.0,53,0.00,,,0.00,Wunderground v.1.15,2013-06-01 17:20:00,
2013-06-01 13:25:00,88.4,68.0,29.65,SSW,201,4.0,5.0,51,0.00,,,0.00,Wunderground v.1.15,2013-06-01 17:25:00,
2013-06-01 13:30:00,88.4,66.2,29.65,East,83,2.0,3.0,48,0.00,,,0.00,Wunderground v.1.15,2013-06-01 17:30:00,
2013-06-01 13:35:00,88.6,68.2,29.65,SW,214,2.0,5.0,51,0.00,,,0.00,Wunderground v.1.15,2013-06-01 17:35:00,
2013-06-01 13:40:00,88.9,68.4,29.65,East,79,2.0,2.0,51,0.00,,,0.00,Wunderground v.1.15,2013-06-01 17:40:00,
2013-06-01 13:45:00,89.0,65.5,29.64,SSE,152,2.0,5.0,46,0.00,,,0.00,Wunderground v.1.15,2013-06-01 17:45:00,
2013-06-01 13:50:00,89.2,66.3,29.64,SSE,165,0.0,2.0,47,0.00,,,0.00,Wunderground v.1.15,2013-06-01 17:50:00,
2013-06-01 13:55:00,89.2,65.1,29.64,SSE,166,3.0,9.0,45,0.00,,,0.00,Wunderground v.1.15,2013-06-01 17:55:00,
2013-06-01 14:00:00,88.9,68.4,29.64,SSE,153,2.0,3.0,51,0.00,,,0.00,Wunderground v.1.15,2013-06-01 18:00:00,
2013-06-01 14:05:00,88.9,67.9,29.63,SW,214,6.0,10.0,50,0.00,,,0.00,Wunderground v.1.15,2013-06-01 18:05:00,
2013-06-01 14:10:00,88.8,67.2,29.63,ESE,120,2.0,5.0,49,0.00,,,0.00,Wunderground v.1.15,2013-06-01 18:10:00,
2013-06-01 14:15:00,88.9,66.1,29.63,SE,141,3.0,7.0,47,0.00,,,0.00,Wunderground v.1.15,2013-06-01 18:15:00,
2013-06-01 14:20:00,89.2,68.1,29.63,SW,215,8.0,8.0,50,0.00,,,0.00,Wunderground v.1.15,2013-06-01 18:20:00,
2013-06-01 14:25:00,89.0,67.4,29.63,South,170,3.0,13.0,49,0.00,,,0.00,Wunderground v.1.15,2013-06-01 18:25:00,
2013-06-01 14:30:00,89.3,69.4,29.63,ESE,122,5.0,6.0,52,0.00,,,0.00,Wunderground v.1.15,2013-06-01 18:30:00,
2013-06-01 14:35:00,89.2,66.9,29.63,SSE,167,2.0,10.0,48,0.00,,,0.00,Wunderground v.1.15,2013-06-01 18:35:00,
2013-06-01 14:40:00,89.5,66.0,29.62,East,84,2.0,4.0,46,0.00,,,0.00,Wunderground v.1.15,2013-06-01 18:40:00,
2013-06-01 14:45:00,89.2,66.3,29.62,ENE,75,0.0,7.0,47,0.00,,,0.00,Wunderground v.1.15,2013-06-01 18:45:00,
2013-06-01 14:50:00,89.4,66.5,29.62,East,95,4.0,5.0,47,0.00,,,0.00,Wunderground v.1.15,2013-06-01 18:50:00,
2013-06-01 14:55:00,89.3,65.8,29.62,SSE,151,4.0,7.0,46,0.00,,,0.00,Wunderground v.1.15,2013-06-01 18:55:00,
2013-06-01 15:00:00,89.4,68.3,29.62,SE,134,3.0,5.0,50,0.00,,,0.00,Wunderground v.1.15,2013-06-01 19:00:00,
2013-06-01 15:05:00,89.7,66.8,29.61,East,81,2.0,7.0,47,0.00,,,0.00,Wunderground v.1.15,2013-06-01 19:05:00,
2013-06-01 15:10:00,89.5,66.0,29.61,SSE,162,2.0,3.0,46,0.00,,,0.00,Wunderground v.1.15,2013-06-01 19:10:00,
2013-06-01 15:15:00,89.4,65.3,29.61,East,101,4.0,5.0,45,0.00,,,0.00,Wunderground v.1.15,2013-06-01 19:15:00,
2013-06-01 15:20:00,89.2,66.9,29.60,South,179,5.0,7.0,48,0.00,,,0.00,Wunderground v.1.15,2013-06-01 19:20:00,
2013-06-01 15:25:00,89.3,65.8,29.60,SE,131,2.0,10.0,46,0.00,,,0.00,Wunderground v.1.15,2013-06-01 19:25:00,
2013-06-01 15:30:00,89.0,67.9,29.60,SSW,209,4.0,4.0,50,0.00,,,0.00,Wunderground v.1.15,2013-06-01 19:30:00,
2013-06-01 15:35:00,89.1,67.5,29.60,South,176,4.0,7.0,49,0.00,,,0.00,Wunderground v.1.15,2013-06-01 19:35:00,
2013-06-01 15:40:00,88.9,67.9,29.60,East,92,2.0,3.0,50,0.00,,,0.00,Wunderground v.1.15,2013-06-01 19:40:00,
2013-06-01 15:45:00,88.2,67.8,29.60,SE,133,3.0,7.0,51,0.00,,,0.00,Wunderground v.1.15,2013-06-01 19:45:00,
2013-06-01 15:50:00,88.4,69.1,29.60,SSE,158,2.0,2.0,53,0.00,,,0.00,Wunderground v.1.15,2013-06-01 19:50:00,
2013-06-01 15:55:00,88.7,69.4,29.60,NE,54,2.0,9.0,53,0.00,,,0.00,Wunderground v.1.15,2013-06-01 19:55:00,
2013-06-01 16:00:00,87.9,67.5,29.60,SSE,165,2.0,5.0,51,0.00,,,0.00,Wunderground v.1.15,2013-06-01 20:00:00,
2013-06-01 16:05:00,87.6,67.8,29.60,SE,143,2.0,6.0,52,0.00,,,0.00,Wunderground v.1.15,2013-06-01 20:05:00,
2013-06-01 16:10:00,87.6,67.8,29.60,SW,229,2.0,3.0,52,0.00,,,0.00,Wunderground v.1.15,2013-06-01 20:10:00,
2013-06-01 16:15:00,87.2,67.4,29.59,ESE,120,1.0,5.0,52,0.00,,,0.00,Wunderground v.1.15,2013-06-01 20:15:00,
2013-06-01 16:20:00,87.7,68.4,29.59,ESE,113,2.0,3.0,53,0.00,,,0.00,Wunderground v.1.15,2013-06-01 20:20:00,
2013-06-01 16:25:00,88.7,68.8,29.59,West,269,0.0,4.0,52,0.00,,,0.00,Wunderground v.1.15,2013-06-01 20:25:00,
2013-06-01 16:30:00,89.2,68.7,29.59,SSE,153,3.0,5.0,51,0.00,,,0.00,Wunderground v.1.15,2013-06-01 20:30:00,
2013-06-01 16:35:00,89.0,69.6,29.59,SSW,211,2.0,5.0,53,0.00,,,0.00,Wunderground v.1.15,2013-06-01 20:35:00,
2013-06-01 16:40:00,89.3,69.9,29.59,ESE,107,1.0,2.0,53,0.00,,,0.00,Wunderground v.1.15,2013-06-01 20:40:00,
2013-06-01 16:45:00,88.8,67.8,29.58,East,83,2.0,4.0,50,0.00,,,0.00,Wunderground v.1.15,2013-06-01 20:45:00,
2013-06-01 16:50:00,87.8,68.0,29.58,East,86,1.0,2.0,52,0.00,,,0.00,Wunderground v.1.15,2013-06-01 20:50:00,
2013-06-01 16:55:00,87.3,69.2,29.58,South,179,2.0,3.0,55,0.00,,,0.00,Wunderground v.1.15,2013-06-01 20:55:00,
2013-06-01 17:00:00,86.9,69.3,29.58,East,96,1.0,2.0,56,0.00,,,0.00,Wunderground v.1.15,2013-06-01 21:00:00,
2013-06-01 17:05:00,86.7,68.6,29.58,SE,124,1.0,2.0,55,0.00,,,0.00,Wunderground v.1.15,2013-06-01 21:05:00,
2013-06-01 17:10:00,86.5,68.9,29.58,SSE,155,2.0,4.0,56,0.00,,,0.00,Wunderground v.1.15,2013-06-01 21:10:00,
2013-06-01 17:15:00,86.0,68.0,29.58,SSE,156,2.0,4.0,55,0.00,,,0.00,Wunderground v.1.15,2013-06-01 21:15:00,
2013-06-01 17:20:00,85.7,67.1,29.58,South,172,1.0,1.0,54,0.00,,,0.00,Wunderground v.1.15,2013-06-01 21:20:00,
2013-06-01 17:25:00,85.6,69.6,29.58,SE,134,0.0,1.0,59,0.00,,,0.00,Wunderground v.1.15,2013-06-01 21:25:00,
2013-06-01 17:30:00,85.7,68.2,29.57,WSW,245,2.0,3.0,56,0.00,,,0.00,Wunderground v.1.15,2013-06-01 21:30:00,
2013-06-01 17:35:00,86.5,68.4,29.57,SSW,194,1.0,5.0,55,0.00,,,0.00,Wunderground v.1.15,2013-06-01 21:35:00,
2013-06-01 17:40:00,87.6,68.4,29.57,SSE,155,1.0,3.0,53,0.00,,,0.00,Wunderground v.1.15,2013-06-01 21:40:00,
2013-06-01 17:45:00,88.4,70.7,29.57,SSW,212,3.0,6.0,56,0.00,,,0.00,Wunderground v.1.15,2013-06-01 21:45:00,
2013-06-01 17:50:00,88.6,68.7,29.57,SW,219,6.0,6.0,52,0.00,,,0.00,Wunderground v.1.15,2013-06-01 21:50:00,
2013-06-01 17:55:00,88.9,70.1,29.57,SSE,165,1.0,6.0,54,0.00,,,0.00,Wunderground v.1.15,2013-06-01 21:55:00,
2013-06-01 18:00:00,88.9,67.9,29.57,SW,224,4.0,7.0,50,0.00,,,0.00,Wunderground v.1.15,2013-06-01 22:00:00,
2013-06-01 18:05:00,88.3,67.3,29.57,SSW,194,4.0,9.0,50,0.00,,,0.00,Wunderground v.1.15,2013-06-01 22:05:00,
2013-06-01 18:10:00,88.1,66.5,29.57,South,184,7.0,9.0,49,0.00,,,0.00,Wunderground v.1.15,2013-06-01 22:10:00,
2013-06-01 18:15:00,88.0,68.2,29.57,SSE,155,2.0,9.0,52,0.00,,,0.00,Wunderground v.1.15,2013-06-01 22:15:00,
2013-06-01 18:20:00,87.9,66.4,29.57,South,184,7.0,8.0,49,0.00,,,0.00,Wunderground v.1.15,2013-06-01 22:20:00,
2013-06-01 18:25:00,87.7,67.3,29.57,ESE,103,2.0,8.0,51,0.00,,,0.00,Wunderground v.1.15,2013-06-01 22:25:00,
2013-06-01 18:30:00,87.7,67.3,29.57,South,191,3.0,5.0,51,0.00,,,0.00,Wunderground v.1.15,2013-06-01 22:30:00,
2013-06-01 18:35:00,87.6,67.2,29.57,SE,126,1.0,8.0,51,0.00,,,0.00,Wunderground v.1.15,2013-06-01 22:35:00,
2013-06-01 18:40:00,87.6,66.7,29.57,South,174,4.0,7.0,50,0.00,,,0.00,Wunderground v.1.15,2013-06-01 22:40:00,
2013-06-01 18:45:00,87.1,67.3,29.57,SSW,210,2.0,7.0,52,0.00,,,0.00,Wunderground v.1.15,2013-06-01 22:45:00,
2013-06-01 18:50:00,86.9,67.2,29.57,ESE,110,3.0,3.0,52,0.00,,,0.00,Wunderground v.1.15,2013-06-01 22:50:00,
2013-06-01 18:55:00,86.8,67.6,29.57,SSE,157,2.0,4.0,53,0.00,,,0.00,Wunderground v.1.15,2013-06-01 22:55:00,
2013-06-01 19:00:00,86.6,67.4,29.57,SSE,163,2.0,2.0,53,0.00,,,0.00,Wunderground v.1.15,2013-06-01 23:00:00,
2013-06-01 19:06:00,86.3,67.2,29.57,SE,141,1.0,9.0,53,0.00,,,0.00,Wunderground v.1.15,2013-06-01 23:06:00,
2013-06-01 19:11:00,86.0,66.9,29.57,SSE,162,3.0,3.0,53,0.00,,,0.00,Wunderground v.1.15,2013-06-01 23:11:00,
2013-06-01 19:16:00,85.6,67.0,29.57,SE,143,4.0,8.0,54,0.00,,,0.00,Wunderground v.1.15,2013-06-01 23:16:00,
2013-06-01 19:21:00,85.4,66.9,29.57,South,180,2.0,9.0,54,0.00,,,0.00,Wunderground v.1.15,2013-06-01 23:21:00,
2013-06-01 19:26:00,85.0,66.5,29.57,SSE,153,0.0,9.0,54,0.00,,,0.00,Wunderground v.1.15,2013-06-01 23:26:00,
2013-06-01 19:31:00,84.3,66.9,29.57,South,176,4.0,5.0,56,0.00,,,0.00,Wunderground v.1.15,2013-06-01 23:31:00,
2013-06-01 19:36:00,83.8,66.9,29.57,SSW,211,3.0,5.0,57,0.00,,,0.00,Wunderground v.1.15,2013-06-01 23:36:00,
2013-06-01 19:41:00,83.1,66.8,29.57,SSW,195,4.0,4.0,58,0.00,,,0.00,Wunderground v.1.15,2013-06-01 23:41:00,
2013-06-01 19:46:00,82.8,66.5,29.57,SSE,160,1.0,6.0,58,0.00,,,0.00,Wunderground v.1.15,2013-06-01 23:46:00,
2013-06-01 19:51:00,82.6,66.3,29.57,East,89,2.0,3.0,58,0.00,,,0.00,Wunderground v.1.15,2013-06-01 23:51:00,
2013-06-01 19:56:00,82.2,66.4,29.57,SSE,148,1.0,4.0,59,0.00,,,0.00,Wunderground v.1.15,2013-06-01 23:56:00,
2013-06-01 20:01:00,81.8,66.6,29.57,South,184,3.0,3.0,60,0.00,,,0.00,Wunderground v.1.15,2013-06-02 00:01:00,
2013-06-01 20:06:00,81.4,65.7,29.57,SW,217,2.0,4.0,59,0.00,,,0.00,Wunderground v.1.15,2013-06-02 00:06:00,
2013-06-01 20:11:00,81.1,66.4,29.57,ESE,120,1.0,3.0,61,0.00,,,0.00,Wunderground v.1.15,2013-06-02 00:11:00,
2013-06-01 20:16:00,80.9,65.7,29.57,South,173,2.0,3.0,60,0.00,,,0.00,Wunderground v.1.15,2013-06-02 00:16:00,
2013-06-01 20:21:00,80.6,66.4,29.57,SSE,156,3.0,3.0,62,0.00,,,0.00,Wunderground v.1.15,2013-06-02 00:21:00,
2013-06-01 20:26:00,80.3,65.6,29.58,South,184,1.0,3.0,61,0.00,,,0.00,Wunderground v.1.15,2013-06-02 00:26:00,
2013-06-01 20:31:00,79.9,66.2,29.57,SSW,209,1.0,1.0,63,0.00,,,0.00,Wunderground v.1.15,2013-06-02 00:31:00,
2013-06-01 20:36:00,79.3,65.6,29.57,SW,215,1.0,3.0,63,0.00,,,0.00,Wunderground v.1.15,2013-06-02 00:36:00,
2013-06-01 20:41:00,78.8,65.1,29.58,SSW,203,0.0,2.0,63,0.00,,,0.00,Wunderground v.1.15,2013-06-02 00:41:00,
2013-06-01 20:46:00,78.0,65.3,29.58,SSW,212,1.0,2.0,65,0.00,,,0.00,Wunderground v.1.15,2013-06-02 00:46:00,
2013-06-01 20:51:00,77.6,65.3,29.57,SSW,207,0.0,1.0,66,0.00,,,0.00,Wunderground v.1.15,2013-06-02 00:51:00,
2013-06-01 20:56:00,77.1,65.3,29.58,SW,214,0.0,1.0,67,0.00,,,0.00,Wunderground v.1.15,2013-06-02 00:56:00,
2013-06-01 21:01:00,76.4,66.3,29.58,SW,214,0.0,0.0,71,0.00,,,0.00,Wunderground v.1.15,2013-06-02 01:01:00,
2013-06-01 21:06:00,75.4,66.9,29.58,SW,214,0.0,0.0,75,0.00,,,0.00,Wunderground v.1.15,2013-06-02 01:06:00,
2013-06-01 21:11:00,74.2,66.1,29.58,SW,214,0.0,0.0,76,0.00,,,0.00,Wunderground v.1.15,2013-06-02 01:11:00,
2013-06-01 21:16:00,73.4,66.1,29.58,WSW,253,1.0,1.0,78,0.00,,,0.00,Wunderground v.1.15,2013-06-02 01:16:00,
2013-06-01 21:21:00,72.8,66.3,29.58,WSW,246,0.0,1.0,80,0.00,,,0.00,Wunderground v.1.15,2013-06-02 01:21:00,
2013-06-01 21:26:00,72.5,66.3,29.58,WSW,246,0.0,1.0,81,0.00,,,0.00,Wunderground v.1.15,2013-06-02 01:26:00,
2013-06-01 21:31:00,71.9,65.8,29.58,WSW,245,0.0,1.0,81,0.00,,,0.00,Wunderground v.1.15,2013-06-02 01:31:00,
2013-06-01 21:36:00,71.3,66.2,29.58,WSW,245,0.0,1.0,84,0.00,,,0.00,Wunderground v.1.15,2013-06-02 01:36:00,
2013-06-01 21:41:00,70.9,65.8,29.57,WSW,245,0.0,0.0,84,0.00,,,0.00,Wunderground v.1.15,2013-06-02 01:41:00,
2013-06-01 21:46:00,70.6,65.9,29.58,WSW,246,0.0,0.0,85,0.00,,,0.00,Wunderground v.1.15,2013-06-02 01:46:00,
2013-06-01 21:51:00,70.2,65.8,29.58,WSW,246,0.0,0.0,86,0.00,,,0.00,Wunderground v.1.15,2013-06-02 01:51:00,
2013-06-01 21:56:00,70.0,65.6,29.58,WSW,246,0.0,0.0,86,0.00,,,0.00,Wunderground v.1.15,2013-06-02 01:56:00,
2013-06-01 22:01:00,69.7,65.3,29.58,WSW,246,0.0,0.0,86,0.00,,,0.00,Wunderground v.1.15,2013-06-02 02:01:00,
2013-06-01 22:06:00,69.5,65.5,29.58,WSW,246,0.0,0.0,87,0.00,,,0.00,Wunderground v.1.15,2013-06-02 02:06:00,
2013-06-01 22:11:00,69.2,65.2,29.58,WSW,245,0.0,0.0,87,0.00,,,0.00,Wunderground v.1.15,2013-06-02 02:11:00,
2013-06-01 22:16:00,69.0,65.3,29.58,WSW,246,0.0,0.0,88,0.00,,,0.00,Wunderground v.1.15,2013-06-02 02:16:00,
2013-06-01 22:21:00,68.7,65.0,29.58,WSW,246,0.0,0.0,88,0.00,,,0.00,Wunderground v.1.15,2013-06-02 02:21:00,
2013-06-01 22:26:00,68.6,64.9,29.58,WSW,246,0.0,0.0,88,0.00,,,0.00,Wunderground v.1.15,2013-06-02 02:26:00,
2013-06-01 22:31:00,68.4,64.7,29.58,WSW,246,0.0,0.0,88,0.00,,,0.00,Wunderground v.1.15,2013-06-02 02:31:00,
2013-06-01 22:36:00,68.2,64.5,29.58,WSW,246,0.0,0.0,88,0.00,,,0.00,Wunderground v.1.15,2013-06-02 02:36:00,
2013-06-01 22:41:00,67.9,64.5,29.58,WSW,246,0.0,0.0,89,0.00,,,0.00,Wunderground v.1.15,2013-06-02 02:41:00,
2013-06-01 22:46:00,67.7,64.3,29.58,WSW,245,0.0,0.0,89,0.00,,,0.00,Wunderground v.1.15,2013-06-02 02:46:00,
2013-06-01 22:51:00,67.6,64.6,29.58,WSW,245,0.0,0.0,90,0.00,,,0.00,Wunderground v.1.15,2013-06-02 02:51:00,
2013-06-01 22:56:00,67.5,64.1,29.58,WSW,246,0.0,0.0,89,0.00,,,0.00,Wunderground v.1.15,2013-06-02 02:56:00,
2013-06-01 23:01:00,67.3,64.3,29.57,WSW,245,0.0,0.0,90,0.00,,,0.00,Wunderground v.1.15,2013-06-02 03:01:00,
2013-06-01 23:06:00,66.9,63.9,29.57,WSW,246,0.0,0.0,90,0.00,,,0.00,Wunderground v.1.15,2013-06-02 03:06:00,
2013-06-01 23:11:00,66.7,63.7,29.57,WSW,246,0.0,0.0,90,0.00,,,0.00,Wunderground v.1.15,2013-06-02 03:11:00,
2013-06-01 23:16:00,66.5,63.5,29.57,WSW,246,0.0,0.0,90,0.00,,,0.00,Wunderground v.1.15,2013-06-02 03:16:00,
2013-06-01 23:21:00,66.3,63.3,29.57,WSW,255,0.0,1.0,90,0.00,,,0.00,Wunderground v.1.15,2013-06-02 03:21:00,
2013-06-01 23:26:00,66.1,63.4,29.57,WSW,249,0.0,1.0,91,0.00,,,0.00,Wunderground v.1.15,2013-06-02 03:26:00,
2013-06-01 23:31:00,66.1,63.4,29.57,WSW,249,0.0,0.0,91,0.00,,,0.00,Wunderground v.1.15,2013-06-02 03:31:00,
2013-06-01 23:36:00,66.0,63.3,29.57,WSW,249,0.0,1.0,91,0.00,,,0.00,Wunderground v.1.15,2013-06-02 03:36:00,
2013-06-01 23:41:00,66.0,63.6,29.57,WSW,249,0.0,0.0,92,0.00,,,0.00,Wunderground v.1.15,2013-06-02 03:41:00,
2013-06-01 23:46:00,65.9,63.5,29.57,WSW,249,0.0,1.0,92,0.00,,,0.00,Wunderground v.1.15,2013-06-02 03:46:00,
2013-06-01 23:51:00,65.8,63.1,29.57,WSW,249,0.0,0.0,91,0.00,,,0.00,Wunderground v.1.15,2013-06-02 03:51:00,
2013-06-01 23:56:00,65.6,62.9,29.57,WSW,252,0.0,0.0,91,0.00,,,0.00,Wunderground v.1.15,2013-06-02 03:56:00,